Location: Lafig�re
(44.4503°N, 4.0357°E)
Time: 22:07:55
(UTC+00:00)

Cosmos 1092 Rocket - Pass Details

Date: 26 January 2021
Orbit: 954 x 995 km, 83.0° (Epoch: 07 March)

Event Time Altitude Azimuth Distance (km) Brightness Sun altitude
Rises 17:36:28 0° 173° (S) 3,646 7.1 -9.4°
Reaches altitude 10° 17:39:00 10° 169° (S) 2,697 6.4 -9.8°
Maximum altitude 17:45:01 58° 92° (E) 1,112 4.0 -10.9°
Drops below altitude 10° 17:51:02 10° 16° (NNE) 2,696 6.0 -11.9°
Sets 17:53:34 0° 12° (NNE) 3,644 6.7 -12.3°
